FW1939 Weather Reports


Display with metric or nautical units.
time (UTC)temp
F
wind
direction
speed
MPH
gust
MPH
rain 1hr
in
rain 24hr
in
rain mn
in
humidity
%
barometer
mb
20260506160012 53 325 0.0 2.0 0.00 0.00 0.00 86 1020.1
20260506155432 53 331 0.0 2.0 0.00 0.00 0.00 87 1020.1
20260506154927 52 26 0.0 2.0 0.00 0.00 0.00 88 1020.1
20260506154428 52 46 0.0 2.0 0.00 0.00 0.00 88 1020.2
20260506153922 51 33 0.0 2.0 0.00 0.00 0.00 89 1020.2
20260506153400 51 49 0.0 2.0 0.00 0.00 0.00 90 1020.1
20260506152901 50 27 0.0 0.0 0.00 0.00 0.00 91 1020.1
20260506152358 50 27 0.0 1.0 0.00 0.00 0.00 91 1020.0
20260506151842 49 27 0.0 2.0 0.00 0.00 0.00 91 1020.0
20260506151329 49 288 0.0 2.0 0.00 0.00 0.00 92 1020.1
20260506150819 49 236 0.0 2.0 0.00 0.00 0.00 92 1020.1
20260506150318 49 236 0.0 2.0 0.00 0.00 0.00 92 1020.1
20260506145810 49 244 0.0 2.0 0.00 0.00 0.00 92 1020.1
20260506145310 49 259 0.0 1.0 0.00 0.00 0.00 92 1020.1
20260506144808 48 9 0.0 0.0 0.00 0.00 0.00 93 1020.0
20260506144304 48 11 0.0 0.0 0.00 0.00 0.00 92 1020.0
20260506143805 48 26 0.0 0.0 0.00 0.00 0.00 92 1020.0
20260506143527 48 34 0.0 0.0 0.00 0.00 0.00 92 1019.9
20260506142804 48 36 0.0 2.0 0.00 0.00 0.00 92 1019.9
20260506142252 48 36 0.0 2.0 0.00 0.00 0.00 92 1019.7
20260506141944 48 36 0.0 2.0 0.00 0.00 0.00 91 1019.7
20260506141439 48 36 0.0 2.0 0.00 0.00 0.00 91 1019.6
20260506141142 48 36 0.0 2.0 0.00 0.00 0.00 91 1019.6
20260506140142 48 66 0.0 0.0 0.00 0.00 0.00 91 1019.6
20260506135639 48 70 0.0 0.0 0.00 0.00 0.00 91 1019.6
20260506135140 48 96 0.0 2.0 0.00 0.00 0.00 91 1019.6
20260506134624 48 98 0.0 2.0 0.00 0.00 0.00 91 1019.4
20260506134118 48 170 0.0 0.0 0.00 0.00 0.00 92 1019.3
20260506133844 47 171 0.0 0.0 0.00 0.00 0.00 91 1019.3
20260506133102 47 170 0.0 1.0 0.00 0.00 0.00 91 1019.2
20260506132521 46 170 0.0 1.0 0.00 0.00 0.00 91 1019.2
20260506132241 46 170 0.0 0.0 0.00 0.00 0.00 91 1019.0
20260506131514 46 170 0.0 0.0 0.00 0.00 0.00 91 1019.0
20260506131013 46 170 0.0 2.0 0.00 0.00 0.00 91 1019.1
20260506130510 46 170 0.0 2.0 0.00 0.00 0.00 91 1019.0
20260506125944 46 170 0.0 0.0 0.00 0.00 0.00 91 1018.9
20260506125442 46 184 0.0 0.0 0.00 0.00 0.00 91 1019.0
20260506124928 46 184 0.0 0.0 0.00 0.00 0.00 91 1018.9
20260506124422 46 184 0.0 0.0 0.00 0.00 0.00 91 1018.8
20260506123902 46 184 0.0 0.0 0.00 0.00 0.00 91 1018.9
20260506123344 46 184 0.0 0.0 0.00 0.00 0.00 91 1018.9
20260506122836 46 184 0.0 0.0 0.00 0.00 0.00 91 1018.8
20260506122556 46 184 0.0 0.0 0.00 0.00 0.00 91 1018.8
20260506121808 46 184 0.0 2.0 0.00 0.00 0.00 91 1018.6
20260506121245 46 177 0.0 2.0 0.00 0.00 0.00 91 1018.5
20260506120737 46 151 0.0 2.0 0.00 0.00 0.00 91 1018.5
20260506120218 46 156 0.0 2.0 0.00 0.00 0.00 91 1018.4
20260506115713 46 156 0.0 2.0 0.00 0.00 0.00 91 1018.3
20260506115200 46 156 0.0 2.0 0.00 0.00 0.00 91 1018.2
20260506114652 46 173 0.0 2.0 0.00 0.00 0.00 91 1018.2
20260506114409 46 169 0.0 2.0 0.00 0.00 0.00 91 1018.3
20260506113622 46 159 0.0 2.0 0.00 0.00 0.00 91 1018.3
20260506113116 46 190 0.0 2.0 0.00 0.00 0.00 91 1018.3
20260506113046 46 165 0.0 2.0 0.00 0.00 0.00 91 1018.3
20260506112054 45 159 0.0 0.0 0.00 0.00 0.00 91 1018.3
20260506111547 45 159 0.0 0.0 0.00 0.00 0.00 91 1018.3
20260506111028 46 159 0.0 0.0 0.00 0.00 0.00 91 1018.3
20260506110516 46 159 0.0 0.0 0.00 0.00 0.00 91 1018.3
20260506110233 46 159 0.0 0.0 0.00 0.00 0.00 91 1018.4
20260506105502 46 159 0.0 0.0 0.00 0.00 0.00 90 1018.4
20260506104958 46 159 0.0 0.0 0.00 0.00 0.00 91 1018.4
20260506104711 46 159 0.0 0.0 0.00 0.00 0.00 91 1018.4
20260506103932 46 159 0.0 0.0 0.00 0.00 0.00 90 1018.3
20260506103412 46 159 0.0 0.0 0.00 0.00 0.00 90 1018.4
20260506102856 46 159 0.0 0.0 0.00 0.00 0.00 90 1018.4
20260506102602 46 159 0.0 0.0 0.00 0.00 0.00 90 1018.4
20260506101837 47 159 0.0 0.0 0.00 0.00 0.00 90 1018.5
20260506101534 47 159 0.0 0.0 0.00 0.00 0.00 90 1018.5
20260506100816 47 159 0.0 0.0 0.00 0.00 0.00 90 1018.5
20260506100535 47 159 0.0 0.0 0.00 0.00 0.00 90 1018.3
20260506100255 47 159 0.0 0.0 0.00 0.00 0.00 89 1018.3
20260506095300 47 159 0.0 0.0 0.00 0.00 0.00 89 1018.4
20260506094945 47 159 0.0 1.0 0.00 0.00 0.00 89 1018.3
20260506094429 47 159 0.0 1.0 0.00 0.00 0.00 89 1018.3
20260506093702 47 159 0.0 2.0 0.00 0.00 0.00 89 1018.3
20260506093140 47 159 0.0 2.0 0.00 0.00 0.00 89 1018.3
20260506092628 47 172 0.0 2.0 0.00 0.00 0.00 89 1018.2
20260506092116 47 172 0.0 2.0 0.00 0.00 0.00 89 1018.2
20260506091613 48 159 0.0 2.0 0.00 0.00 0.00 89 1018.2
20260506091114 48 146 0.0 2.0 0.00 0.00 0.00 89 1018.2
20260506090819 48 174 0.0 2.0 0.00 0.00 0.00 89 1018.2
20260506090028 48 162 0.0 2.0 0.00 0.00 0.00 89 1018.3
20260506085517 48 173 0.0 2.0 0.00 0.00 0.00 89 1018.2
20260506085018 48 166 0.0 2.0 0.00 0.00 0.00 89 1018.1
20260506084509 48 151 0.0 2.0 0.00 0.00 0.00 89 1018.2
20260506084006 48 172 0.0 2.0 0.00 0.00 0.00 89 1018.2
20260506083503 48 163 0.0 2.0 0.00 0.00 0.00 89 1018.3
20260506083004 48 171 0.0 2.0 0.00 0.00 0.00 89 1018.2
20260506082443 48 173 0.0 2.0 0.00 0.00 0.00 89 1018.2
20260506081942 48 166 0.0 1.0 0.00 0.00 0.00 89 1018.2
20260506081442 48 171 0.0 0.0 0.00 0.00 0.00 89 1018.2
20260506080924 48 171 0.0 0.0 0.00 0.00 0.00 89 1018.2
20260506080405 48 171 0.0 1.0 0.00 0.00 0.00 89 1018.2
20260506080125 49 171 0.0 1.0 0.00 0.00 0.00 89 1018.2
20260506073316 48 109 0.0 0.0 0.00 0.00 0.00 88 1018.3
20260506072814 49 109 0.0 0.0 0.00 0.00 0.00 88 1018.2
20260506072300 49 109 0.0 0.0 0.00 0.00 0.00 88 1018.2
20260506071731 49 109 0.0 0.0 0.00 0.00 0.00 88 1018.1
20260506071226 49 109 0.0 0.0 0.00 0.00 0.00 88 1018.1
20260506070720 49 109 0.0 0.0 0.00 0.00 0.00 88 1018.0
20260506070212 49 109 0.0 0.0 0.00 0.00 0.00 88 1017.8
20260506062011 51 109 0.0 0.0 0.00 0.00 0.00 86 1017.5
20260506061455 51 109 0.0 0.0 0.00 0.00 0.00 86 1017.5
20260506060919 51 109 0.0 0.0 0.00 0.00 0.00 85 1017.3
20260506060411 51 109 0.0 0.0 0.00 0.00 0.00 85 1017.3
20260506051245 52 213 0.0 1.0 0.00 0.00 0.00 84 1017.1
20260506050743 52 218 0.0 0.0 0.00 0.00 0.00 84 1017.1
20260506050237 52 218 0.0 1.0 0.00 0.00 0.00 83 1017.0
20260506044705 52 215 0.0 1.0 0.00 0.00 0.00 84 1016.8
20260506044203 52 193 0.0 0.0 0.00 0.00 0.00 83 1016.7
20260506043648 52 193 0.0 0.0 0.00 0.00 0.00 83 1016.7
20260506043113 52 193 0.0 0.0 0.00 0.00 0.00 83 1016.7
20260506042813 53 193 0.0 0.0 0.00 0.00 0.00 82 1016.6
20260506042659 53 193 0.0 0.0 0.00 0.00 0.00 82 1016.6
20260506041605 53 193 0.0 0.0 0.00 0.00 0.00 82 1016.5
20260506041014 53 193 0.0 0.0 0.00 0.00 0.00 81 1016.4
20260506040924 53 193 0.0 0.0 0.00 0.00 0.00 81 1016.3
20260506035924 54 193 0.0 0.0 0.00 0.00 0.00 80 1016.4
20260506035639 54 193 0.0 0.0 0.00 0.00 0.00 80 1016.3
20260506034910 54 193 0.0 2.0 0.00 0.00 0.00 79 1016.2
20260506034401 55 193 0.0 2.0 0.00 0.00 0.00 79 1016.1
20260506033900 55 176 0.0 2.0 0.00 0.00 0.00 78 1016.2
20260506033353 55 175 0.0 2.0 0.00 0.00 0.00 78 1016.1
20260506032849 56 196 1.0 2.0 0.00 0.00 0.00 77 1016.0
20260506032352 56 188 0.0 2.0 0.00 0.00 0.00 76 1016.0
20260506031836 56 180 0.0 3.0 0.00 0.00 0.00 76 1015.7
20260506031324 56 178 0.0 4.0 0.00 0.00 0.00 75 1015.7
20260506030819 57 198 1.0 3.0 0.00 0.00 0.00 74 1015.6
20260506030536 57 200 1.0 3.0 0.00 0.00 0.00 74 1015.5
20260506025811 57 175 1.0 2.0 0.00 0.00 0.00 73 1015.5
20260506025306 57 187 1.0 5.0 0.00 0.00 0.00 72 1015.4
20260506024758 58 166 1.0 5.0 0.00 0.00 0.00 72 1015.5
20260506024257 58 171 2.0 6.0 0.00 0.00 0.00 71 1015.5
20260506023747 58 208 2.0 6.0 0.00 0.00 0.00 70 1015.4
20260506023235 58 192 2.0 6.0 0.00 0.00 0.00 70 1015.3
20260506022734 58 190 1.0 5.0 0.00 0.00 0.00 70 1015.4
20260506022223 58 159 1.0 4.0 0.00 0.00 0.00 71 1015.3
20260506021722 58 199 1.0 5.0 0.00 0.00 0.00 71 1015.2
20260506021217 59 215 2.0 7.0 0.00 0.00 0.00 71 1015.2
20260506020710 59 146 3.0 7.0 0.00 0.00 0.00 71 1015.2
20260506020423 59 180 3.0 7.0 0.00 0.00 0.00 71 1015.1
20260506015655 59 237 3.0 7.0 0.00 0.00 0.00 71 1015.2
20260506015148 59 165 2.0 6.0 0.00 0.00 0.00 70 1015.2
20260506014647 60 209 2.0 6.0 0.00 0.00 0.00 68 1015.3
20260506014141 60 221 2.0 7.0 0.00 0.00 0.00 68 1015.2
20260506013855 60 242 3.0 7.0 0.00 0.00 0.00 67 1015.2
20260506013125 60 205 2.0 7.0 0.00 0.00 0.00 67 1015.2
20260506012623 60 236 2.0 6.0 0.00 0.00 0.00 68 1015.2
20260506012117 60 231 2.0 6.0 0.00 0.00 0.00 67 1015.2
20260506011605 60 213 2.0 8.0 0.00 0.00 0.00 67 1015.2
20260506011104 61 244 3.0 8.0 0.00 0.00 0.00 66 1015.3
20260506010559 61 174 2.0 9.0 0.00 0.00 0.00 66 1015.3
20260506010053 61 215 2.0 9.0 0.00 0.00 0.00 65 1015.3
20260506005547 61 217 2.0 7.0 0.00 0.00 0.00 64 1015.3
20260506005040 61 225 3.0 9.0 0.00 0.00 0.00 63 1015.3
20260506004534 61 249 4.0 9.0 0.00 0.00 0.00 63 1015.3
20260506004024 62 229 2.0 9.0 0.00 0.00 0.00 63 1015.2
20260506003748 62 199 2.0 6.0 0.00 0.00 0.00 62 1015.3
20260506003016 62 132 2.0 6.0 0.00 0.00 0.00 62 1015.3
20260506002510 62 246 2.0 8.0 0.00 0.00 0.00 62 1015.3
20260506002004 62 171 3.0 8.0 0.00 0.00 0.00 62 1015.2
20260506001500 63 160 4.0 9.0 0.00 0.00 0.00 63 1015.2
20260506000954 63 179 3.0 9.0 0.00 0.00 0.00 62 1015.2
20260506000447 64 190 3.0 7.0 0.00 0.00 0.00 62 1015.3
20260505235936 63 227 4.0 9.0 0.00 0.00 0.00 62 1015.1
20260505235435 64 169 3.0 9.0 0.00 0.00 0.00 62 1015.2
20260505234924 64 165 3.0 7.0 0.00 0.00 0.00 61 1015.2
20260505234422 64 165 3.0 7.0 0.00 0.00 0.00 60 1015.2
20260505234141 65 202 3.0 6.0 0.00 0.00 0.00 59 1015.2
20260505233638 65 159 2.0 7.0 0.00 0.00 0.00 59 1015.2
20260505232904 65 205 2.0 7.0 0.00 0.00 0.00 57 1015.3
20260505232354 65 211 2.0 7.0 0.00 0.00 0.00 57 1015.3
20260505231852 66 205 2.0 7.0 0.00 0.00 0.00 57 1015.3
20260505231347 66 249 3.0 8.0 0.00 0.00 0.00 57 1015.3
20260505231103 67 153 3.0 8.0 0.00 0.00 0.00 57 1015.4
20260505230335 65 145 3.0 7.0 0.00 0.00 0.00 58 1015.3
20260505230045 65 259 3.0 7.0 0.00 0.00 0.00 58 1015.2
20260505225322 65 209 3.0 7.0 0.00 0.00 0.00 58 1015.3
20260505224813 65 213 2.0 7.0 0.00 0.00 0.00 58 1015.4
20260505224312 66 205 2.0 6.0 0.00 0.00 0.00 57 1015.6
20260505223806 65 224 2.0 6.0 0.00 0.00 0.00 59 1015.5
20260505223259 65 207 3.0 7.0 0.00 0.00 0.00 57 1015.6
20260505222754 65 133 3.0 9.0 0.00 0.00 0.00 58 1015.5
20260505222505 66 194 3.0 9.0 0.00 0.00 0.00 59 1015.7
20260505221938 65 184 1.0 7.0 0.00 0.00 0.00 60 1015.6
20260505221826 66 171 1.0 7.0 0.00 0.00 0.00 57 1015.7
20260505220724 65 135 1.0 8.0 0.00 0.00 0.00 60 1015.7
20260505220222 65 185 1.0 8.0 0.00 0.00 0.00 58 1015.8
20260505215716 65 327 1.0 4.0 0.00 0.00 0.00 59 1015.8
20260505215210 65 169 2.0 9.0 0.00 0.00 0.00 59 1016.0
20260505214704 64 161 3.0 9.0 0.00 0.00 0.00 60 1016.0
20260505214158 65 210 3.0 8.0 0.00 0.00 0.00 58 1016.0
20260505213648 64 145 3.0 9.0 0.00 0.00 0.00 60 1016.0
20260505213146 65 213 2.0 9.0 0.00 0.00 0.00 60 1016.1
20260505212640 64 250 2.0 7.0 0.00 0.00 0.00 60 1016.0
20260505212134 64 49 2.0 7.0 0.00 0.00 0.00 60 1016.2
20260505211841 64 175 2.0 7.0 0.00 0.00 0.00 61 1016.2
20260505211122 63 165 2.0 7.0 0.00 0.00 0.00 61 1016.0
20260505210617 64 191 1.0 6.0 0.00 0.00 0.00 60 1016.1
20260505210110 64 197 1.0 5.0 0.00 0.00 0.00 60 1016.2
20260505205610 64 23 1.0 4.0 0.00 0.00 0.00 59 1016.2
20260505205110 65 274 1.0 7.0 0.00 0.00 0.00 60 1016.2
20260505204552 64 198 1.0 7.0 0.00 0.00 0.00 62 1016.2
20260505204310 63 163 1.0 6.0 0.00 0.00 0.00 62 1016.1
20260505203540 63 202 1.0 6.0 0.00 0.00 0.00 61 1016.1
20260505203034 64 220 1.0 7.0 0.00 0.00 0.00 60 1016.1
20260505202530 64 174 2.0 7.0 0.00 0.00 0.00 60 1016.1
20260505202018 65 202 1.0 7.0 0.00 0.00 0.00 58 1016.1
20260505201516 65 171 1.0 6.0 0.00 0.00 0.00 59 1016.2
20260505201010 64 224 1.0 6.0 0.00 0.00 0.00 62 1016.2
20260505200505 62 109 2.0 7.0 0.00 0.00 0.00 63 1016.1
20260505195958 62 81 3.0 7.0 0.00 0.00 0.00 63 1016.1
20260505195452 62 150 2.0 7.0 0.00 0.00 0.00 62 1016.0
20260505194946 63 240 1.0 5.0 0.00 0.00 0.00 62 1016.0
20260505194436 63 246 1.0 7.0 0.00 0.00 0.00 61 1016.2
20260505193930 62 118 1.0 7.0 0.00 0.00 0.00 64 1016.2
20260505193424 62 202 2.0 6.0 0.00 0.00 0.00 63 1016.2
20260505193405 62 220 2.0 6.0 0.00 0.00 0.00 64 1016.1
20260505192639 61 169 1.0 5.0 0.00 0.00 0.00 64 1016.1
20260505192132 62 294 1.0 5.0 0.00 0.00 0.00 65 1016.2
20260505191400 61 236 2.0 5.0 0.00 0.00 0.00 65 1016.2
20260505190854 61 240 2.0 5.0 0.00 0.00 0.00 65 1016.2
20260505190348 61 196 1.0 5.0 0.00 0.00 0.00 64 1016.1
20260505185843 62 191 1.0 4.0 0.00 0.00 0.00 63 1016.2
20260505185336 62 21 1.0 4.0 0.00 0.00 0.00 61 1016.1
20260505184826 62 333 0.0 2.0 0.00 0.00 0.00 60 1016.0
20260505184321 62 180 1.0 4.0 0.00 0.00 0.00 62 1016.1
20260505183819 62 233 1.0 4.0 0.00 0.00 0.00 61 1016.1
20260505183312 62 232 0.0 3.0 0.00 0.00 0.00 60 1016.0
20260505182807 62 268 0.0 2.0 0.00 0.00 0.00 61 1016.0
20260505182300 61 38 0.0 2.0 0.00 0.00 0.00 64 1016.0
20260505181754 61 38 1.0 5.0 0.00 0.00 0.00 61 1016.1
20260505181248 61 161 1.0 5.0 0.00 0.00 0.00 62 1016.1
20260505180749 61 11 0.0 2.0 0.00 0.00 0.00 63 1016.0
20260505180236 60 196 0.0 2.0 0.00 0.00 0.00 64 1015.9
20260505175730 60 49 0.0 2.0 0.00 0.00 0.00 66 1015.9
20260505175224 59 18 0.0 2.0 0.00 0.00 0.00 66 1015.9
20260505174719 60 338 0.0 3.0 0.00 0.00 0.00 66 1015.9
20260505174220 58 22 0.0 3.0 0.00 0.00 0.00 67 1015.8
20260505173717 58 330 1.0 4.0 0.00 0.00 0.00 66 1015.8
20260505173218 59 19 0.0 4.0 0.00 0.00 0.00 67 1015.8
20260505172716 58 61 0.0 4.0 0.00 0.00 0.00 68 1015.8
20260505172440 58 92 1.0 4.0 0.00 0.00 0.00 70 1015.8
20260505171718 58 164 0.0 2.0 0.00 0.00 0.00 68 1015.8
20260505171214 57 22 0.0 2.0 0.00 0.00 0.00 70 1016.0
20260505170937 57 32 0.0 2.0 0.00 0.00 0.00 71 1015.9
20260505170214 57 39 0.0 2.0 0.00 0.00 0.00 71 1015.9
20260505165700 56 17 0.0 1.0 0.00 0.00 0.00 73 1016.0
20260505165200 56 351 0.0 2.0 0.00 0.00 0.00 71 1015.9
20260505164700 56 13 0.0 2.0 0.00 0.00 0.00 73 1015.8
20260505164406 55 163 0.0 2.0 0.00 0.00 0.00 73 1015.6
20260505163633 55 90 0.0 2.0 0.00 0.00 0.00 74 1015.8
20260505163346 54 22 0.0 2.0 0.00 0.00 0.00 75 1015.7
20260505162624 54 344 0.0 1.0 0.00 0.00 0.00 75 1015.7
20260505162118 54 32 0.0 4.0 0.00 0.00 0.00 76 1015.7
20260505161612 54 26 0.0 4.0 0.00 0.00 0.00 76 1015.6
20260505161110 54 9 0.0 2.0 0.00 0.00 0.00 76 1015.6
20260505160558 54 12 0.0 2.0 0.00 0.00 0.00 77 1015.7